Kecskemet, Hungary

2:28 PM CET on February 22, 2017 (GMT +0100)
Kecskemet

Weather History for LHKE - October, 2011

Change the Weather History Date:

Wednesday, October 26, 2011

  Actual Average (LHBP) Record (LHBP)
Temperature  
Mean Temperature 52 °F -  
Max Temperature 62 °F 56 °F 71 °F (2005)
Min Temperature 42 °F 38 °F 24 °F (1997)
Degree Days  
Heating Degree Days 13    
Growing Degree Days 2 (Base 50)    
Moisture  
Dew Point 44 °F    
Average Humidity 75    
Maximum Humidity 87    
Minimum Humidity 55    
Precipitation  
Precipitation 0.00 in - - ()
Sea Level Pressure  
Sea Level Pressure 30.18 in    
Wind  
Wind Speed 10 mph ()    
Max Wind Speed 18 mph    
Max Gust Speed -    
Visibility 4.0 miles    
Events      
Averages and records for this station are not official NWS values.
T = Trace of Precipitation, MM = Missing Value Source: Averaged Metar Reports

Daily Weather History Graph

Daily Weather History Graph

Search for Another Location

Airport or City:

Trip Planner

Search our weather history database for the weather conditions in past years. The results will help you decide how hot, cold, wet, or windy it might be!

Date:

Astronomy

Oct. 26, 2011 Rise Set
Actual Time 7:13 AM CEST 5:35 PM CEST
Civil Twilight 6:42 AM CEST 6:06 PM CEST
Nautical Twilight 6:07 AM CEST 6:42 PM CEST
Astronomical Twilight 5:31 AM CEST 7:17 PM CEST
Moon 6:40 AM CEST (10/26) 5:01 PM CEST (10/26)
Length of Visible Light 11h 24m
Length of Day
10h 21m
Waning Crescent, 0% of the Moon is Illuminated
Oct 26
Waning Crescent
Oct 26
New
Nov 2
First Quarter
Nov 10
Full
Nov 18
Last Quarter

Hourly Weather History & Observations

Time (CEST) Temp. Windchill Dew Point Humidity Pressure Visibility Wind Dir Wind Speed Gust Speed Precip Events Conditions
12:15 AM 48.2 °F - 42.8 °F 82% 30.12 in - SE 11.2 mph - N/A   Clear
12:45 AM 48.2 °F - 42.8 °F 82% 30.15 in - SE 11.2 mph - N/A   Clear
1:15 AM 48.2 °F - 42.8 °F 82% 30.15 in - SSE 11.2 mph - N/A   Clear
1:45 AM 48.2 °F - 42.8 °F 82% 30.15 in - SE 11.2 mph - N/A   Clear
2:15 AM 46.4 °F 41.2 °F 42.8 °F 87% 30.15 in - SE 11.2 mph - N/A   Clear
3:15 AM 46.4 °F 40.5 °F 41.0 °F 81% 30.15 in - SE 13.4 mph - N/A   Clear
3:45 AM - - - N/A% - - SE 8.9 mph - N/A   Clear
4:15 AM 46.4 °F 40.5 °F 41.0 °F 81% 30.15 in - SE 13.4 mph - N/A   Clear
4:45 AM 44.6 °F 38.2 °F 41.0 °F 87% 30.15 in - SE 13.4 mph - N/A   Clear
5:45 AM 46.4 °F 40.5 °F 41.0 °F 81% 30.15 in - SE 13.4 mph - N/A   Clear
6:15 AM 44.6 °F 38.9 °F 39.2 °F 81% 30.15 in - East 11.2 mph - N/A   Clear
6:45 AM - - - N/A% - 6.2 mi SE 11.2 mph - N/A   Clear
7:15 AM 42.8 °F 38.7 °F 39.2 °F 87% 30.15 in - ESE 6.7 mph - N/A   Clear
7:45 AM 42.8 °F 38.7 °F 39.2 °F 87% 30.18 in - East 6.7 mph - N/A   Clear
8:15 AM 44.6 °F 40.8 °F 41.0 °F 87% 30.18 in - East 6.7 mph - N/A   Clear
8:45 AM 48.2 °F - 42.8 °F 82% 30.18 in - ESE 6.7 mph - N/A   Clear
9:15 AM 50.0 °F - 41.0 °F 71% 30.18 in - ESE 13.4 mph - N/A   Clear
9:45 AM - - - N/A% - 6.2 mi SE 11.2 mph - N/A   Clear
10:15 AM 53.6 °F - 42.8 °F 67% 30.21 in - SE 13.4 mph - N/A   Clear
10:45 AM 55.4 °F - 44.6 °F 67% 30.21 in - SE 13.4 mph - N/A   Clear
11:15 AM 55.4 °F - 44.6 °F 67% 30.21 in - SE 17.9 mph - N/A   Clear
11:45 AM 59.0 °F - 46.4 °F 63% 30.21 in - SE 13.4 mph - N/A   Clear
12:15 PM 59.0 °F - 46.4 °F 63% 30.21 in - SSE 11.2 mph - N/A   Clear
12:45 PM 60.8 °F - 46.4 °F 59% 30.18 in - SSE 13.4 mph - N/A   Clear
1:15 PM 60.8 °F - 46.4 °F 59% 30.18 in - SSE 13.4 mph - N/A   Clear
2:15 PM 62.6 °F - 46.4 °F 55% 30.18 in - SE 13.4 mph - N/A   Clear
2:45 PM 60.8 °F - 46.4 °F 59% 30.18 in - SE 13.4 mph - N/A   Clear
3:15 PM 60.8 °F - 46.4 °F 59% 30.18 in - SE 11.2 mph - N/A   Clear
3:45 PM - - - N/A% - - ESE 11.2 mph - N/A   Clear
4:15 PM 60.8 °F - 46.4 °F 59% 30.18 in - SE 11.2 mph - N/A   Clear
4:45 PM 59.0 °F - 46.4 °F 63% 30.18 in - SE 11.2 mph - N/A   Clear
5:15 PM 57.2 °F - 46.4 °F 67% 30.18 in - ESE 8.9 mph - N/A   Clear
5:45 PM 55.4 °F - 46.4 °F 72% 30.18 in - ESE 8.9 mph - N/A   Clear
6:15 PM 53.6 °F - 46.4 °F 77% 30.18 in - ESE 6.7 mph - N/A   Clear
6:45 PM - - - N/A% - 1.7 mi ESE 6.7 mph - N/A   Clear
7:15 PM 53.6 °F - 46.4 °F 77% 30.18 in - ESE 4.5 mph - N/A   Clear
7:45 PM 51.8 °F - 44.6 °F 76% 30.18 in - ESE 6.7 mph - N/A   Clear
8:15 PM 51.8 °F - 44.6 °F 76% 30.18 in - East 6.7 mph - N/A   Clear
8:45 PM 48.2 °F - 44.6 °F 87% 30.18 in - ESE 4.5 mph - N/A   Clear
9:15 PM 50.0 °F - 44.6 °F 82% 30.21 in - ESE 6.7 mph - N/A   Clear
9:45 PM - - - N/A% - 1.7 mi ESE 6.7 mph - N/A   Clear
10:15 PM 50.0 °F - 42.8 °F 76% 30.21 in - ESE 6.7 mph - N/A   Clear
10:45 PM 48.2 °F - 42.8 °F 82% 30.21 in - ESE 6.7 mph - N/A   Clear
11:15 PM 48.2 °F - 42.8 °F 82% 30.21 in - ESE 8.9 mph - N/A   Clear
11:45 PM 48.2 °F - 42.8 °F 82% 30.21 in - SE 8.9 mph - N/A   Clear